Hourly Weather Roundup
Issued by NWS Central Illinois

Home | Current Version | Previous Version | Text Only | Print | Product List | Glossary On
Versions: 1 2 3 4 5 6 7 8 9 10 11 12 13 14 15 16 17 18 19 20 21 22 23 24 25 26 27 28 29 30 31 32 33 34 35 36 37 38 39 40 41 42 43 44 45 46 47 48 49 50
077
NZUS43 KILX 051210
HWRILX

AREA WEATHER ROUNDUP
NATIONAL WEATHER SERVICE, LINCOLN IL
700 AM CDT THU MAY 05 2016


CITY           SKY/WX    TMP DP  RH WIND       PRES   REMARKS
BLOOMINGTON    PTSUNNY   40  37  89 N12       29.96R WCI  33
6HR MIN TEMP:  38; 6HR MAX TEMP:  42;

CHAMPAIGN      CLOUDY    42  37  82 N13       29.91R
6HR MIN TEMP:  40; 6HR MAX TEMP:  44;

DANVILLE       CLOUDY    42  39  89 N14       29.87R WCI  35
6HR MIN TEMP:  41; 6HR MAX TEMP:  43;

DECATUR        PTSUNNY   42  35  76 N15       29.94R WCI  34
6HR MIN TEMP:  41; 6HR MAX TEMP:  48;

EFFINGHAM      CLOUDY    44  39  82 N13       29.92R
FLORA          MOSUNNY   45  38  77 N9G17     29.90R
6HR MIN TEMP:  45; 6HR MAX TEMP:  50;

GALESBURG      SUNNY     40  37  89 NW3       30.01R
JACKSONVILLE   SUNNY     43  38  83 NW6       29.98R
6HR MIN TEMP:  40; 6HR MAX TEMP:  48;

LACON          SUNNY     41  35  80 N6        29.97R
6HR MIN TEMP:  39; 6HR MAX TEMP:  42;

LAWRENCEVILLE  CLOUDY    45  38  76 N13G22    29.87R
6HR MIN TEMP:  45; 6HR MAX TEMP:  51;

LITCHFIELD     SUNNY     42  36  79 N13       29.95R
$$


CITY           SKY/WX    TMP DP  RH WIND       PRES   REMARKS
LINCOLN          N/A     42  37  82 N8        29.96
MACOMB         SUNNY     40  38  92 NW7       30.03R
MATTOON        CLOUDY    42  36  79 N15       29.89R WCI  34
6HR MIN TEMP:  41; 6HR MAX TEMP:  47;

MT CARMEL AP   CLOUDY    45  37  76 N13       29.86R
OLNEY-NOBLE AP CLOUDY    43  37  81 N12G20    29.89R
PARIS          CLOUDY    43  40  90 N7        29.89R
6HR MIN TEMP:  42; 6HR MAX TEMP:  46;

PEORIA         SUNNY     42  36  79 N7        29.98R
6HR MIN TEMP:  41; 6HR MAX TEMP:  48;

PONTIAC        CLOUDY    42  38  86 N15       29.95R WCI  35
RANTOUL        CLOUDY    45  39  79 N13G23    29.91R
6HR MIN TEMP:  42; 6HR MAX TEMP:  46;

ROBINSON       CLOUDY    43  38  80 N13       29.87R
6HR MIN TEMP:  43; 6HR MAX TEMP:  49;

SPRINGFIELD    SUNNY     44  37  76 N9        29.97R
6HR MIN TEMP:  42; 6HR MAX TEMP:  50;

TAYLORVILLE    SUNNY     41  36  81 N17       29.95R WCI  33
$$

...REGIONAL REPORTS...


CITY           SKY/WX    TMP DP  RH WIND       PRES   REMARKS
CHICAGO O`HARE MOSUNNY   42  34  73 N15       29.95R WCI  34
KANKAKEE       CLOUDY    43  36  76 N12G18    29.94R
MOLINE         SUNNY     45  36  70 NE3       30.01R
MOUNT STERLING SUNNY     41  38  86 NW5       29.99R
MOUNT VERNON   SUNNY     46  36  66 N6        29.90R
PITTSFIELD     SUNNY     45  38  78 NW6       30.00R
QUINCY         SUNNY     44  37  76 N6        30.00R
ROCKFORD       SUNNY     41  34  76 N13       30.00R WCI  34
$$


CITY           SKY/WX    TMP DP  RH WIND       PRES   REMARKS
BURLINGTON     SUNNY     43  37  79 N6        30.01R
CEDAR RAPIDS   SUNNY     39  33  79 N5        30.03R
DES MOINES     PTCLDY    47  34  60 CALM      30.06R
KIRKSVILLE     CLEAR     44  34  67 N6        30.03R
OTTUMWA        CLEAR     38  31  76 NW6       30.04R WCI  33
ST LOUIS       SUNNY     49  38  65 N10       29.97R
$$


CITY           SKY/WX    TMP DP  RH WIND       PRES   REMARKS
TERRE HAUTE    CLOUDY    45  39  79 N12       29.86R
EVANSVILLE     PTSUNNY   46  37  71 N13G20    29.85R
INDIANAPOLIS   PTSUNNY   43  38  82 NE12      29.82R
LAFAYETTE      CLOUDY    43  40  89 N12       29.87R
MADISON        MOSUNNY   38  32  79 N6        30.02R WCI  33
MILWAUKEE      PTSUNNY   42  33  70 N17G23    29.98R WCI  34
$$






USA.gov is the U.S. government's official web portal to all federal, state and local government web resources and services.